GW3945 Weather Reports


Display with metric or nautical units.
time (UTC)temp
F
wind
direction
speed
MPH
gust
MPH
rain 1hr
in
rain 24hr
in
rain mn
in
humidity
%
barometer
mb
20260508212943 71 175 0.0 0.0 0.00 0.00 0.00 37 1010.0
20260508212440 71 138 0.0 0.0 0.00 0.00 0.00 37 1010.1
20260508211935 71 171 0.0 0.0 0.00 0.00 0.00 38 1010.0
20260508211431 71 158 0.0 0.0 0.00 0.00 0.00 40 1010.0
20260508210929 70 173 0.0 0.0 0.00 0.00 0.00 38 1010.2
20260508210425 70 91 0.0 0.0 0.00 0.00 0.00 38 1010.3
20260508205922 70 167 0.0 0.0 0.00 0.00 0.00 39 1010.4
20260508205419 71 158 2.0 2.0 0.00 0.00 0.00 40 1010.4
20260508204915 71 168 0.0 0.0 0.00 0.00 0.00 38 1010.5
20260508204413 71 156 0.0 0.0 0.00 0.00 0.00 40 1010.4
20260508203908 71 209 0.0 0.0 0.00 0.00 0.00 37 1010.7
20260508203404 69 161 0.0 0.0 0.00 0.00 0.00 38 1010.7
20260508202900 70 160 0.0 0.0 0.00 0.00 0.00 40 1010.6
20260508202358 69 185 0.0 0.0 0.00 0.00 0.00 38 1010.7
20260508201855 69 175 0.0 0.0 0.00 0.00 0.00 38 1010.8
20260508201351 70 149 0.0 0.0 0.00 0.00 0.00 38 1010.7
20260508200848 70 193 0.0 0.0 0.00 0.00 0.00 38 1010.9
20260508200345 69 231 1.0 3.0 0.00 0.00 0.00 40 1010.8
20260508195840 69 160 0.0 0.0 0.00 0.00 0.00 40 1011.1
20260508195337 68 175 0.0 0.0 0.00 0.00 0.00 39 1011.0
20260508194833 68 172 0.0 0.0 0.00 0.00 0.00 42 1011.3
20260508194331 68 176 1.0 2.0 0.00 0.00 0.00 39 1011.1
20260508193827 68 149 0.0 0.0 0.00 0.00 0.00 38 1011.4
20260508193324 68 179 0.0 0.0 0.00 0.00 0.00 39 1011.3
20260508192821 68 138 0.0 0.0 0.00 0.00 0.00 37 1011.6
20260508192318 68 175 0.0 0.0 0.00 0.00 0.00 36 1011.8
20260508191815 68 196 0.0 0.0 0.00 0.00 0.00 37 1011.7
20260508191312 68 166 0.0 0.0 0.00 0.00 0.00 36 1011.9
20260508190809 68 161 0.0 0.0 0.00 0.00 0.00 37 1011.9
20260508190306 68 164 0.0 0.0 0.00 0.00 0.00 37 1012.1
20260508185802 68 176 0.0 0.0 0.00 0.00 0.00 38 1012.0
20260508185300 67 167 0.0 0.0 0.00 0.00 0.00 36 1012.0
20260508184756 68 147 0.0 0.0 0.00 0.00 0.00 36 1012.2
20260508184253 68 149 0.0 0.0 0.00 0.00 0.00 33 1012.2
20260508183750 68 181 0.0 0.0 0.00 0.00 0.00 37 1012.2
20260508183246 68 174 0.0 0.0 0.00 0.00 0.00 42 1012.5
20260508182743 67 162 3.0 3.0 0.00 0.00 0.00 41 1012.9
20260508182239 68 147 0.0 0.0 0.00 0.00 0.00 40 1012.9
20260508181735 68 156 1.0 2.0 0.00 0.00 0.00 42 1013.3
20260508181232 67 190 0.0 0.0 0.00 0.00 0.00 43 1013.0
20260508180729 67 142 0.0 0.0 0.00 0.00 0.00 42 1012.8
20260508180226 67 197 0.0 0.0 0.00 0.00 0.00 40 1012.9
20260508175722 67 155 0.0 0.0 0.00 0.00 0.00 41 1012.9
20260508175219 67 156 0.0 0.0 0.00 0.00 0.00 42 1013.2
20260508174717 66 162 0.0 0.0 0.00 0.00 0.00 42 1012.9
20260508174214 66 151 0.0 0.0 0.00 0.00 0.00 41 1013.3
20260508173710 66 131 0.0 0.0 0.00 0.00 0.00 42 1013.3
20260508173206 66 156 0.0 1.0 0.00 0.00 0.00 40 1013.6
20260508172704 66 142 0.0 0.0 0.00 0.00 0.00 43 1013.4
20260508172200 65 165 0.0 0.0 0.00 0.00 0.00 42 1013.8
20260508171657 65 176 0.0 0.0 0.00 0.00 0.00 41 1013.6
20260508171153 65 162 0.0 0.0 0.00 0.00 0.00 41 1014.0
20260508170650 65 164 0.0 0.0 0.00 0.00 0.00 46 1014.0
20260508170148 65 158 0.0 0.0 0.00 0.00 0.00 42 1014.1
20260508165645 65 132 0.0 0.0 0.00 0.00 0.00 45 1014.1
20260508165142 64 172 0.0 0.0 0.00 0.00 0.00 46 1014.3
20260508164638 65 139 0.0 1.0 0.00 0.00 0.00 43 1014.2
20260508164135 64 170 0.0 0.0 0.00 0.00 0.00 46 1014.4
20260508163633 64 161 0.0 0.0 0.00 0.00 0.00 44 1014.5
20260508163130 64 144 0.0 0.0 0.00 0.00 0.00 46 1014.6
20260508162626 64 123 0.0 0.0 0.00 0.00 0.00 46 1014.6
20260508162123 63 166 0.0 0.0 0.00 0.00 0.00 46 1014.7
20260508161620 63 153 0.0 0.0 0.00 0.00 0.00 45 1015.1
20260508161118 63 116 0.0 0.0 0.00 0.00 0.00 44 1014.9
20260508160616 63 138 0.0 0.0 0.00 0.00 0.00 47 1014.8
20260508160113 63 120 0.0 0.0 0.00 0.00 0.00 47 1015.0
20260508155610 64 141 0.0 0.0 0.00 0.00 0.00 48 1015.2
20260508155107 63 167 0.0 0.0 0.00 0.00 0.00 47 1015.2
20260508154604 63 160 0.0 0.0 0.00 0.00 0.00 48 1015.1
20260508154101 63 171 0.0 0.0 0.00 0.00 0.00 51 1015.2
20260508153558 63 139 0.0 0.0 0.00 0.00 0.00 58 1015.4
20260508153054 62 165 0.0 0.0 0.00 0.00 0.00 59 1015.1
20260508152551 62 134 1.0 1.0 0.00 0.00 0.00 55 1015.2
20260508152046 62 140 0.0 0.0 0.00 0.00 0.00 57 1015.4
20260508151543 61 145 0.0 0.0 0.00 0.00 0.00 59 1015.6
20260508151040 60 167 0.0 0.0 0.00 0.00 0.00 57 1015.5
20260508150537 60 146 0.0 0.0 0.00 0.00 0.00 57 1015.5
20260508150033 60 167 0.0 0.0 0.00 0.00 0.00 62 1015.5
20260508145530 60 155 0.0 0.0 0.00 0.00 0.00 66 1015.5
20260508145026 60 170 0.0 0.0 0.00 0.00 0.00 63 1015.7
20260508144524 60 197 0.0 0.0 0.00 0.00 0.00 67 1015.5
20260508144021 59 170 0.0 0.0 0.00 0.00 0.00 63 1015.5
20260508143519 59 163 0.0 0.0 0.00 0.00 0.00 69 1015.6
20260508143015 58 150 0.0 0.0 0.00 0.00 0.00 67 1015.9
20260508142512 58 165 0.0 0.0 0.00 0.00 0.00 67 1015.8
20260508142009 58 176 0.0 0.0 0.00 0.00 0.00 66 1015.9
20260508141505 57 144 0.0 0.0 0.00 0.00 0.00 69 1015.6
20260508141003 57 173 0.0 0.0 0.00 0.00 0.00 66 1015.9
20260508140500 57 167 0.0 0.0 0.00 0.00 0.00 67 1016.0
20260508135955 56 156 0.0 0.0 0.00 0.00 0.00 64 1015.8
20260508135452 56 158 0.0 0.0 0.00 0.00 0.00 66 1016.2
20260508134948 55 144 0.0 0.0 0.00 0.00 0.00 67 1016.0
20260508134445 55 165 0.0 0.0 0.00 0.00 0.00 70 1016.1
20260508133942 55 160 0.0 0.0 0.00 0.00 0.00 73 1016.1
20260508133439 54 166 0.0 0.0 0.00 0.00 0.00 74 1016.1
20260508132936 53 169 0.0 0.0 0.00 0.00 0.00 75 1016.1
20260508132434 53 168 0.0 0.0 0.00 0.00 0.00 80 1016.0
20260508131931 52 167 0.0 0.0 0.00 0.00 0.00 78 1016.0
20260508131426 51 168 0.0 0.0 0.00 0.00 0.00 79 1016.1
20260508130923 51 172 0.0 0.0 0.00 0.00 0.00 83 1016.1
20260508130420 50 174 0.0 0.0 0.00 0.00 0.00 85 1016.1
20260508125916 50 175 0.0 0.0 0.00 0.00 0.00 87 1015.9
20260508125412 49 187 0.0 0.0 0.00 0.00 0.00 86 1015.8
20260508124910 49 187 0.0 0.0 0.00 0.00 0.00 89 1015.9
20260508124407 48 187 0.0 0.0 0.00 0.00 0.00 88 1016.1
20260508123905 47 187 0.0 0.0 0.00 0.00 0.00 89 1015.8
20260508123403 47 187 0.0 0.0 0.00 0.00 0.00 91 1015.7
20260508122859 46 187 0.0 0.0 0.00 0.00 0.00 92 1015.7
20260508122356 46 187 0.0 0.0 0.00 0.00 0.00 92 1015.6
20260508121853 45 187 0.0 0.0 0.00 0.00 0.00 93 1015.6
20260508121352 45 188 0.0 0.0 0.00 0.00 0.00 93 1015.5
20260508120849 44 189 0.0 0.0 0.00 0.00 0.00 94 1015.5
20260508120347 43 189 0.0 0.0 0.00 0.00 0.00 93 1015.7
20260508115844 43 189 0.0 0.0 0.00 0.00 0.00 93 1015.6
20260508115341 42 189 0.0 0.0 0.00 0.00 0.00 93 1015.4
20260508114838 42 189 0.0 0.0 0.00 0.00 0.00 93 1015.2
20260508114335 42 184 0.0 0.0 0.00 0.00 0.00 93 1015.2
20260508113832 42 184 0.0 0.0 0.00 0.00 0.00 93 1015.4
20260508113330 42 184 0.0 0.0 0.00 0.00 0.00 92 1015.2
20260508112826 42 184 0.0 0.0 0.00 0.00 0.00 92 1014.9
20260508112323 42 184 0.0 0.0 0.00 0.00 0.00 92 1015.2
20260508111820 41 186 0.0 0.0 0.00 0.00 0.00 93 1014.8
20260508111317 41 184 0.0 0.0 0.00 0.00 0.00 92 1015.0
20260508110814 42 184 0.0 0.0 0.00 0.00 0.00 92 1014.6
20260508110312 42 184 0.0 0.0 0.00 0.00 0.00 92 1014.8
20260508105811 42 184 0.0 0.0 0.00 0.00 0.00 92 1014.8
20260508105308 42 184 0.0 0.0 0.00 0.00 0.00 92 1014.6
20260508104805 42 184 0.0 0.0 0.00 0.00 0.00 92 1014.9
20260508104302 42 184 0.0 0.0 0.00 0.00 0.00 93 1014.6
20260508103759 42 184 0.0 0.0 0.00 0.00 0.00 93 1014.6
20260508103256 42 184 0.0 0.0 0.00 0.00 0.00 93 1014.5
20260508102753 42 184 0.0 0.0 0.00 0.00 0.00 93 1014.5
20260508102251 43 184 0.0 0.0 0.00 0.00 0.00 92 1014.4
20260508101749 42 184 0.0 0.0 0.00 0.00 0.00 92 1014.6
20260508101246 42 184 0.0 0.0 0.00 0.00 0.00 92 1014.4
20260508100743 43 184 0.0 0.0 0.00 0.00 0.00 92 1014.3
20260508100241 43 184 0.0 0.0 0.00 0.00 0.00 91 1014.2
20260508095737 43 184 0.0 0.0 0.00 0.00 0.00 91 1014.1
20260508095235 43 184 0.0 0.0 0.00 0.00 0.00 90 1014.2
20260508094731 44 184 0.0 0.0 0.00 0.00 0.00 89 1014.1
20260508094229 44 184 0.0 0.0 0.00 0.00 0.00 89 1014.3
20260508093726 44 187 0.0 0.0 0.00 0.00 0.00 86 1014.1
20260508093224 44 184 0.0 0.0 0.00 0.00 0.00 83 1014.1
20260508092720 44 191 0.0 0.0 0.00 0.00 0.00 81 1014.0
20260508092218 44 193 0.0 0.0 0.00 0.00 0.00 86 1014.1
20260508091716 44 189 0.0 0.0 0.00 0.00 0.00 88 1014.4
20260508091213 44 189 0.0 0.0 0.00 0.00 0.00 88 1014.4
20260508090711 44 189 0.0 0.0 0.00 0.00 0.00 90 1014.1
20260508090208 44 188 0.0 0.0 0.00 0.00 0.00 90 1014.2
20260508085703 45 187 0.0 0.0 0.00 0.00 0.00 89 1014.2
20260508085201 45 187 0.0 0.0 0.00 0.00 0.00 89 1014.3
20260508084657 45 187 0.0 0.0 0.00 0.00 0.00 88 1014.3
20260508084155 45 187 0.0 0.0 0.00 0.00 0.00 88 1014.3
20260508083652 45 197 0.0 0.0 0.00 0.00 0.00 87 1014.2
20260508083149 45 189 0.0 0.0 0.00 0.00 0.00 86 1014.4
20260508082644 45 188 0.0 0.0 0.00 0.00 0.00 87 1014.2
20260508082142 45 186 0.0 0.0 0.00 0.00 0.00 85 1014.2
20260508081639 45 188 0.0 0.0 0.00 0.00 0.00 85 1014.2
20260508081135 45 185 0.0 0.0 0.00 0.00 0.00 88 1014.4
20260508080633 45 186 0.0 0.0 0.00 0.00 0.00 88 1014.3
20260508080131 46 183 0.0 0.0 0.00 0.00 0.00 86 1014.5
20260508075627 47 183 0.0 0.0 0.00 0.00 0.00 84 1014.4
20260508075124 47 181 0.0 0.0 0.00 0.00 0.00 81 1014.3
20260508074622 47 182 0.0 0.0 0.00 0.00 0.00 74 1014.4
20260508074118 46 187 0.0 0.0 0.00 0.00 0.00 80 1014.5
20260508073616 46 193 0.0 0.0 0.00 0.00 0.00 87 1014.5
20260508073114 46 184 0.0 0.0 0.00 0.00 0.00 89 1014.6
20260508072609 46 186 0.0 0.0 0.00 0.00 0.00 90 1014.6
20260508072106 46 184 0.0 0.0 0.00 0.00 0.00 90 1014.6
20260508071604 46 189 0.0 0.0 0.00 0.00 0.00 90 1014.6
20260508071102 46 184 0.0 0.0 0.00 0.00 0.00 90 1014.5
20260508070559 46 184 0.0 0.0 0.00 0.00 0.00 89 1014.8
20260508070058 46 188 0.0 0.0 0.00 0.00 0.00 89 1014.7
20260508065555 46 183 0.0 0.0 0.00 0.00 0.00 88 1014.5
20260508065053 47 183 0.0 0.0 0.00 0.00 0.00 87 1014.6
20260508064550 47 183 0.0 0.0 0.00 0.00 0.00 86 1014.6
20260508064048 47 184 0.0 0.0 0.00 0.00 0.00 85 1014.7
20260508063545 48 187 0.0 0.0 0.00 0.00 0.00 84 1014.7
20260508063043 48 187 0.0 0.0 0.00 0.00 0.00 78 1014.8
20260508062540 47 196 0.0 0.0 0.00 0.00 0.00 83 1014.8
20260508062037 48 188 0.0 0.0 0.00 0.00 0.00 84 1014.8
20260508061535 48 183 0.0 0.0 0.00 0.00 0.00 83 1014.8
20260508061031 48 186 0.0 0.0 0.00 0.00 0.00 78 1014.8
20260508060528 48 189 0.0 0.0 0.00 0.00 0.00 78 1014.7
20260508060026 49 182 0.0 0.0 0.00 0.00 0.00 82 1014.8
20260508055521 49 183 0.0 0.0 0.00 0.00 0.00 74 1014.9
20260508055018 48 187 0.0 0.0 0.00 0.00 0.00 75 1014.7
20260508054514 48 189 0.0 0.0 0.00 0.00 0.00 77 1014.8
20260508054012 48 190 0.0 0.0 0.00 0.00 0.00 78 1014.9
20260508053508 49 183 0.0 0.0 0.00 0.00 0.00 78 1014.9
20260508053007 49 204 0.0 0.0 0.00 0.00 0.00 73 1014.8
20260508052504 48 206 0.0 0.0 0.00 0.00 0.00 76 1014.7
20260508052000 48 200 0.0 0.0 0.00 0.00 0.00 80 1014.8
20260508051456 48 208 0.0 0.0 0.00 0.00 0.00 76 1014.8
20260508050952 48 198 0.0 0.0 0.00 0.00 0.00 81 1014.9
20260508050448 48 203 0.0 0.0 0.00 0.00 0.00 84 1014.6
20260508045945 47 184 0.0 0.0 0.00 0.00 0.00 83 1015.0
20260508045442 48 185 0.0 0.0 0.00 0.00 0.00 87 1014.9
20260508044940 48 187 0.0 0.0 0.00 0.00 0.00 86 1014.7
20260508044437 48 186 0.0 0.0 0.00 0.00 0.00 86 1014.9
20260508043932 48 184 0.0 0.0 0.00 0.00 0.00 85 1014.7
20260508043430 48 184 0.0 0.0 0.00 0.00 0.00 86 1015.2
20260508042926 48 184 0.0 0.0 0.00 0.00 0.00 85 1015.0
20260508042424 48 184 0.0 0.0 0.00 0.00 0.00 82 1015.0
20260508041920 48 202 0.0 0.0 0.00 0.00 0.00 85 1015.0
20260508041417 48 196 0.0 0.0 0.00 0.00 0.00 85 1015.1
20260508040914 48 188 0.0 0.0 0.00 0.00 0.00 86 1015.1
20260508040411 48 186 0.0 0.0 0.00 0.00 0.00 88 1015.1
20260508035909 48 185 0.0 0.0 0.00 0.00 0.00 88 1015.2
20260508035406 48 188 0.0 0.0 0.00 0.00 0.00 87 1015.0
20260508034902 49 185 0.0 0.0 0.00 0.00 0.00 86 1015.2
20260508034400 49 184 0.0 0.0 0.00 0.00 0.00 86 1015.0
20260508033856 49 184 0.0 0.0 0.00 0.00 0.00 85 1015.1
20260508033354 49 188 0.0 0.0 0.00 0.00 0.00 84 1015.1
20260508032852 49 185 0.0 0.0 0.00 0.00 0.00 82 1014.9
20260508032349 49 204 0.0 0.0 0.00 0.00 0.00 85 1014.8
20260508031845 49 185 0.0 0.0 0.00 0.00 0.00 85 1015.0
20260508031342 49 185 0.0 0.0 0.00 0.00 0.00 85 1014.7
20260508030838 49 184 0.0 0.0 0.00 0.00 0.00 85 1014.8
20260508030336 49 186 0.0 0.0 0.00 0.00 0.00 87 1014.9
20260508025832 50 182 0.0 0.0 0.00 0.00 0.00 87 1014.7
20260508025329 50 182 0.0 0.0 0.00 0.00 0.00 85 1014.8
20260508024826 50 182 0.0 0.0 0.00 0.00 0.00 83 1014.5
20260508024323 51 183 0.0 0.0 0.00 0.00 0.00 82 1014.5
20260508023820 51 185 0.0 0.0 0.00 0.00 0.00 78 1014.5
20260508023316 51 183 0.0 0.0 0.00 0.00 0.00 79 1014.5
20260508022813 51 198 0.0 0.0 0.00 0.00 0.00 76 1014.5
20260508022309 51 181 0.0 0.0 0.00 0.00 0.00 81 1014.7
20260508021806 52 182 0.0 0.0 0.00 0.00 0.00 81 1014.7
20260508021302 51 184 0.0 0.0 0.00 0.00 0.00 78 1014.6
20260508020758 51 183 0.0 0.0 0.00 0.00 0.00 79 1014.5
20260508020256 52 183 0.0 0.0 0.00 0.00 0.00 80 1014.5
20260508015753 52 183 0.0 0.0 0.00 0.00 0.00 77 1014.4
20260508015250 52 187 0.0 0.0 0.00 0.00 0.00 77 1014.4
20260508014747 53 186 0.0 0.0 0.00 0.00 0.00 77 1014.5
20260508014244 53 182 0.0 0.0 0.00 0.00 0.00 77 1014.4
20260508013739 53 190 0.0 0.0 0.00 0.00 0.00 70 1014.2
20260508013236 54 193 0.0 0.0 0.00 0.00 0.00 73 1014.2
20260508012734 54 183 0.0 0.0 0.00 0.00 0.00 75 1014.1
20260508012231 54 184 0.0 0.0 0.00 0.00 0.00 68 1014.0
20260508011729 55 191 0.0 0.0 0.00 0.00 0.00 69 1013.8
20260508011226 55 183 0.0 0.0 0.00 0.00 0.00 71 1013.8
20260508010722 56 183 0.0 0.0 0.00 0.00 0.00 70 1013.9
20260508010221 56 183 0.0 0.0 0.00 0.00 0.00 60 1013.4
20260508005717 56 184 0.0 0.0 0.00 0.00 0.00 61 1013.5
20260508005214 57 178 0.0 0.0 0.00 0.00 0.00 58 1013.7
20260508004710 57 178 0.0 0.0 0.00 0.00 0.00 56 1013.6
20260508004206 57 178 0.0 0.0 0.00 0.00 0.00 56 1013.6
20260508003703 58 178 0.0 0.0 0.00 0.00 0.00 55 1013.8
20260508003201 58 178 0.0 0.0 0.00 0.00 0.00 55 1013.6
20260508002656 58 178 0.0 0.0 0.00 0.00 0.00 54 1013.5
20260508002155 59 178 0.0 0.0 0.00 0.00 0.00 54 1013.4
20260508001649 59 182 0.0 0.0 0.00 0.00 0.00 53 1013.3
20260508001146 59 186 0.0 0.0 0.00 0.00 0.00 54 1013.3
20260508000642 60 185 0.0 0.0 0.00 0.00 0.00 55 1013.3
20260508000139 60 179 0.0 0.0 0.00 0.00 0.00 57 1013.2
20260507235636 60 175 0.0 0.0 0.00 0.00 0.00 51 1013.0
20260507235133 60 184 0.0 0.0 0.00 0.00 0.00 49 1012.8
20260507234630 61 190 0.0 0.0 0.00 0.00 0.00 49 1013.2
20260507234126 61 203 0.0 0.0 0.00 0.00 0.00 49 1012.8
20260507233623 61 238 0.0 0.0 0.00 0.00 0.00 49 1013.2
20260507233122 61 185 0.0 0.0 0.00 0.00 0.00 49 1012.9
20260507232618 62 175 0.0 0.0 0.00 0.00 0.00 50 1013.0
20260507232115 62 179 0.0 0.0 0.00 0.00 0.00 47 1012.9
20260507231611 62 207 0.0 0.0 0.00 0.00 0.00 49 1013.0
20260507231109 62 180 0.0 0.0 0.00 0.00 0.00 47 1013.0
20260507230605 62 172 0.0 0.0 0.00 0.00 0.00 49 1013.2
20260507225557 64 168 0.0 0.0 0.00 0.00 0.00 48 1013.0
20260507225054 65 217 0.0 0.0 0.00 0.00 0.00 45 1013.2
20260507224549 65 275 0.0 0.0 0.00 0.00 0.00 44 1012.9
20260507224046 66 254 0.0 0.0 0.00 0.00 0.00 44 1013.0
20260507223542 66 223 1.0 2.0 0.00 0.00 0.00 43 1013.2
20260507223039 66 190 0.0 0.0 0.00 0.00 0.00 42 1013.2
20260507222537 65 176 0.0 0.0 0.00 0.00 0.00 46 1013.3
20260507222033 65 170 0.0 0.0 0.00 0.00 0.00 46 1013.2
20260507221529 65 283 0.0 0.0 0.00 0.00 0.00 47 1013.2
20260507221026 66 166 0.0 0.0 0.00 0.00 0.00 43 1013.3
20260507220523 66 200 0.0 0.0 0.00 0.00 0.00 43 1013.2
20260507220021 66 173 0.0 1.0 0.00 0.00 0.00 42 1013.3
20260507215517 66 189 0.0 0.0 0.00 0.00 0.00 45 1013.4
20260507215015 67 203 0.0 0.0 0.00 0.00 0.00 40 1013.2
20260507214512 67 126 0.0 0.0 0.00 0.00 0.00 40 1013.2
20260507214007 66 184 0.0 0.0 0.00 0.00 0.00 41 1013.3
20260507213504 66 183 0.0 0.0 0.00 0.00 0.00 46 1013.2